Regional Weather Roundup
Issued by NWS New Orleans/Baton Rouge, LA

Home | Current Version | Previous Version | Graphics & Text | Print | Product List | Glossary On
Versions: 1 2 3 4 5 6 7 8 9 10 11 12 13 14 15 16 17 18 19 20 21 22 23 24 25 26 27 28 29 30 31 32 33 34 35 36 37 38 39 40 41 42 43 44 45 46 47 48 49 50
441
ASUS44 KLIX 011310
RWRLIX
NEW ORLEANS REGIONAL WEATHER ROUNDUP
NATIONAL WEATHER SERVICE NEW ORLEANS LA
700 AM CST SUN FEB 01 2015

NOTE: "FAIR" INDICATES FEW OR NO CLOUDS BELOW 12,000 FEET WITH NO
      SIGNIFICANT WEATHER AND/OR OBSTRUCTIONS TO VISIBILITY.
      SKY/WX - SKY CONDITION AND SIGNIFICANT WEATHER.
      TMP - AIR TEMPERATURE.     DP    - DEWPOINT TEMPERATURE.
      RH  - RELATIVE HUMIDITY.   PRES  - PRESSURE.
      HI  - HEAT INDEX.          WCI   - WIND CHILL INDEX.

*  THESE STATIONS ARE NOT NWS OR FAA STATIONS AND ARE NOT UNDER
   NWS QUALITY CONTROL.

LAZ038-040-048-061>063-065>067-069-011400-
SOUTHEAST LOUISIANA

CITY           SKY/WX    TMP DP  RH WIND       PRES   REMARKS
N.O. AUDUBON   NOT AVBL
N.O. INTL ARPT CLOUDY    60  57  89 SE10      30.00F
N.O. LAKEFRONT CLOUDY    62  57  83 SE10      30.03F
N.O. DOWNTOWN* NOT AVBL
SLIDELL        LGT RAIN  59  57  93 SE5       30.03S FOG
BATON ROUGE    CLOUDY    58  56  93 E5        29.99S
BOOTHVILLE     MOCLDY    63  57  81 SE8       30.03S
BELLE CHASSE   LGT RAIN  60  56  86 CALM      30.03R
BOGALUSA*        N/A     57  53  88 CALM      30.03F
GALLIANO*      RAIN      59  58  96 MISG      30.02F
NEW ROADS*     PTSUNNY   58  56  91 SE5       29.99R
GONZALES*      PTSUNNY   60  60 100 CALM      29.99S
HAMMOND*       CLOUDY    57  54  88 SE3       30.02R
HOUMA*         MOCLDY    61  61 100 E7        29.99F
PORT FOURCHON* CLOUDY    66  63  88 VRB6G12   30.05S FOG

$$

MSZ070-080>082-011400-
SOUTHERN MISSISSIPPI

CITY           SKY/WX    TMP DP  RH WIND       PRES   REMARKS
MCCOMB         CLOUDY    57  54  89 SE9       30.00F
GULFPORT       LGT RAIN  60  56  86 SE7       30.04F
BILOXI         MOCLDY    59  56  90 SE9       30.04F
PASCAGOULA     CLOUDY    52  51  97 CALM      30.07R
STENNIS ARPT*  DRIZZLE   61  54  77 SE3       30.04

$$

COASTAL OBSERVATIONS
LAKE AND NEARSHORE STATIONS

STATION/POSITION TIME  TEMP    WIND        PRES    WAVE
                       AIR SEA DIR/SP/G            HT/PER
                 (UTC) (F)     (DEG/KT/KT) (MB)    (FT/S)
PASCAGOULA       1300   61     130/  5/ 10 1017.3
WAVELAND YACHT   1300   60     150/  6/  7 1016.3
GRAND ISLE       1300   65 62  280/  5/  6 1017.1
SOUTHWEST PASS   1300   62 49  140/  9/ 13 1016.9
NEW CANAL        1300   60 55  140/  2/  6 1016.8
SHELL BEACH      1300   62 56  140/ 10/ 13 1016.5

OFFSHORE STATIONS

STATION/POSITION TIME  TEMP    WIND        PRES    WAVE
                       AIR SEA DIR/SP/G            HT/PER
                 (UTC) (F)     (DEG/KT/KT) (MB)    (FT/S)
64 S DAUPHIN ISL 1236   70 69  160/ 21/ 25 1017.6    5/ 6

$$




USA.gov is the U.S. government's official web portal to all federal, state and local government web resources and services.